Fort Dodge, IA

7:47 PM CST on November 13, 2019 (GMT -0600)
Fort Dodge Regional

Weather History for KFOD - October, 2019

Change the Weather History Date:

Wednesday, October 23, 2019

  Actual Average Record
Temperature  
Mean Temperature 39 °F -  
Max Temperature 48 °F 61 °F 83 °F (1963)
Min Temperature 30 °F 38 °F 17 °F (1976)
Degree Days  
Heating Degree Days 26    
Moisture  
Dew Point 35 °F    
Average Humidity 88    
Maximum Humidity 97    
Minimum Humidity 66    
Precipitation  
Precipitation 0.11 in - - ()
Sea Level Pressure  
Sea Level Pressure 30.01 in    
Wind  
Wind Speed 4 mph ()    
Max Wind Speed 13 mph    
Max Gust Speed -    
Visibility 9.7 miles    
Events Rain    
Averages and records for this station are not official NWS values.
T = Trace of Precipitation, MM = Missing Value Source: Averaged Metar Reports

Daily Weather History Graph

Daily Weather History Graph

Search for Another Location

Airport or City:

Astronomy

Oct. 23, 2019 Rise Set
Actual Time 7:39 AM CDT 6:22 PM CDT
Civil Twilight 7:10 AM CDT 6:51 PM CDT
Nautical Twilight 6:37 AM CDT 7:23 PM CDT
Astronomical Twilight 6:04 AM CDT 7:56 PM CDT
Moon 1:49 AM CDT (10/23) 4:21 PM CDT (10/23)
Length of Visible Light 11h 40m
Length of Day
10h 43m
Waning Crescent, 26% of the Moon is Illuminated
Oct 23
Waning Crescent
Oct 27
New
Nov 4
First Quarter
Nov 12
Full
Nov 19
Last Quarter

Hourly Weather History & Observations

Time (CDT) Temp. Windchill Dew Point Humidity Pressure Visibility Wind Dir Wind Speed Gust Speed Precip Events Conditions
12:56 AM 36.0 °F - 30.9 °F 82% 29.93 in 10.0 mi Calm Calm - N/A   Clear
1:56 AM 34.0 °F - 30.0 °F 85% 29.93 in 10.0 mi Calm Calm - 0.01 in   Clear
2:56 AM 30.9 °F - 27.0 °F 85% 29.95 in 10.0 mi Calm Calm - N/A   Clear
3:56 AM 32.0 °F - 28.9 °F 88% 29.94 in 10.0 mi Calm Calm - 0.01 in   Mostly Cloudy
4:56 AM 34.0 °F - 32.0 °F 92% 29.93 in 10.0 mi Calm Calm - 0.01 in   Overcast
5:56 AM 34.0 °F - 32.0 °F 92% 29.93 in 10.0 mi Calm Calm - N/A   Overcast
6:56 AM 35.1 °F 32.2 °F 33.1 °F 92% 29.94 in 10.0 mi ENE 3.5 mph - 0.01 in   Overcast
7:56 AM 36.0 °F - 34.0 °F 93% 29.96 in 10.0 mi Calm Calm - 0.01 in   Overcast
8:56 AM 41.0 °F 35.8 °F 36.0 °F 82% 29.95 in 10.0 mi East 8.1 mph - 0.02 in   Overcast
9:56 AM 45.0 °F 40.1 °F 36.0 °F 71% 29.96 in 10.0 mi ENE 9.2 mph - N/A   Mostly Cloudy
10:56 AM 48.0 °F - 37.9 °F 68% 29.93 in 10.0 mi East 12.7 mph - 0.01 in   Mostly Cloudy
11:56 AM 48.0 °F - 37.0 °F 66% 29.93 in 10.0 mi East 9.2 mph - 0.02 in   Overcast
12:56 PM 43.0 °F 39.5 °F 37.9 °F 82% 30.02 in 9.0 mi North 5.8 mph - 0.01 in Rain Rain
1:23 PM 42.8 °F 39.3 °F 37.4 °F 81% 29.93 in 10.0 mi North 5.8 mph - N/A Rain Rain
1:56 PM 39.9 °F 34.5 °F 37.0 °F 89% 30.03 in 10.0 mi North 8.1 mph - N/A Rain Rain
2:44 PM 39.2 °F 33.0 °F 37.4 °F 93% 29.90 in 10.0 mi NNE 9.2 mph - N/A Rain Light Rain
2:56 PM 41.0 °F 35.2 °F 37.9 °F 89% 30.02 in 10.0 mi NNE 9.2 mph - N/A Rain Light Rain
3:14 PM 39.2 °F 33.6 °F 37.4 °F 93% 29.91 in 10.0 mi NNE 8.1 mph - 0.00 in   Overcast
3:27 PM 39.2 °F 33.0 °F 37.4 °F 93% 29.91 in 10.0 mi NNE 9.2 mph - 0.00 in   Overcast
3:56 PM 39.9 °F 33.4 °F 37.0 °F 89% 30.05 in 10.0 mi NNE 10.4 mph - 0.00 in Rain Light Rain
4:10 PM 39.2 °F 32.5 °F 37.4 °F 93% 29.94 in 10.0 mi North 10.4 mph - 0.00 in Rain Light Rain
4:17 PM 39.2 °F 32.5 °F 37.4 °F 93% 29.95 in 10.0 mi NNE 10.4 mph - 0.00 in Rain Light Rain
4:53 PM 39.2 °F 33.0 °F 37.4 °F 93% 29.97 in 9.0 mi North 9.2 mph - 0.00 in   Overcast
4:56 PM 39.0 °F 33.4 °F 37.0 °F 93% 30.08 in 9.0 mi North 8.1 mph - 0.00 in   Overcast
5:04 PM 39.2 °F 34.2 °F 37.4 °F 93% 29.98 in 7.0 mi North 6.9 mph - N/A   Overcast
5:56 PM 37.9 °F 32.7 °F 36.0 °F 93% 30.14 in 6.0 mi North 6.9 mph - 0.00 in Rain Light Rain
6:11 PM 37.4 °F 33.8 °F 35.6 °F 93% 30.02 in 10.0 mi North 4.6 mph - 0.00 in Rain Light Rain
6:56 PM 37.9 °F 35.5 °F 37.0 °F 97% 30.17 in 10.0 mi North 3.5 mph - 0.00 in   Overcast
7:56 PM 37.9 °F 35.5 °F 37.0 °F 97% 30.20 in 10.0 mi NW 3.5 mph - N/A   Overcast
8:56 PM 39.0 °F 35.7 °F 37.0 °F 93% 30.23 in 10.0 mi WNW 4.6 mph - N/A   Overcast
9:56 PM 39.0 °F 35.7 °F 36.0 °F 89% 30.25 in 10.0 mi NW 4.6 mph - N/A   Overcast
10:56 PM 37.9 °F 34.4 °F 35.1 °F 89% 30.26 in 10.0 mi NNW 4.6 mph - N/A   Mostly Cloudy
11:34 PM 37.4 °F 33.8 °F 35.6 °F 93% 30.19 in 10.0 mi NW 4.6 mph - 0.01 in   Mostly Cloudy